Погода в Кабаррогисе

Филиппины     16°34′30″N   121°33′19″E
темп.,
°C
ветер,
м/с
пор.,
м/с
влажн.,
%
обл.,
%
осадки,
мм/ч
давл.,
гПа
погр.,
м
24 мая, вт
вт2423:00+23ююз229099 0.1 101141
02:00+22юз219019 0.1 101035
05:00+22зюз11906 0.0 101119
08:00+27св117293 0.0 1012477
11:00+31св235796 0.1 10111340
14:00+32юв125896 0.8 10081252
17:00+29ю2372100 0.8 1008139
20:00+25ююз2287100 0.9 101152
25 мая, ср
ср2523:00+24юз119144 0.6 101227
02:00+23юз1193100 0.6 101116
05:00+22юз1194100 0.0 101115
08:00+27с107799 0.0 1011475
11:00+32ссв235797 0.0 10091463
14:00+32в2260100 1.1 10071327
17:00+28ююз1182100 4.2 100753
20:00+24ююз1191100 4.8 100931
26 мая, чт
чт2623:00+23зюз1196100 3.5 101135
02:00+22ю1198100 6.4 101043
05:00+23ю119784 0.1 101032
08:00+26ю018482 0.1 1010425
11:00+31св235841 0.0 10071408
14:00+32зсз026447 1.6 1005888
17:00+28ююв238298 2.6 100561
20:00+24ююз2292100 4.3 100755
27 мая, пт
пт2723:00+23юз0097100 2.9 101019
02:00+22ююз119791 3.1 100827
05:00+22ююз119698 0.0 100916
08:00+26юз018140 0.0 1009383
11:00+32ссв245414 0.0 10071592
14:00+32св125689 0.5 10051041
17:00+28ю237397 0.2 100557
20:00+25ю2282100 0.6 100864
28 мая, сб
сб2823:00+24юз1188100 0.2 100927
02:00+23юз119198 0.2 100820
05:00+22юз1191100 0.0 100817
08:00+27ссв017348 0.0 1009517
11:00+32св1351100 0.0 10071660
14:00+33всв124997 0.4 10051506
17:00+30юв2462100 0.4 1005290
20:00+24ююз2386100 0.8 100782